[[{"header":{"parameterUnit":"m.s-1","parameterCategory":2,"la1":30.2991,"la2":30.254,"lo1":-89.0895,"lo2":-89.0444,"dy":0.0017,"dx":0.0017,"nx":28,"ny":28,"refTime":"2025-11-21T09:00:00:Z","depth":"0","parameterNumber":2,"parameterNumberName":"U-component_of_CURRENTS"},"data":[0,0,0,0,0,0,0,0,0,0,0,0,0,0,0,0,0,0,0,0,0,0,0,0,0,0,0,0,0,0,0,0,0,0,0,0,0,0,0,0,0,0,0,0,0,0,0,0,0,0,0,0,0,0,0,0,0,0,-0.3458,-0.3459,0,-0.3507,-0.3507,-0.3507,-0.3483,-0.3483,-0.3482,-0.3482,-0.3422,-0.3421,-0.342,0,0,0,0,0,0,0,0,0,0,0,0,0,-0.326,-0.3264,-0.3458,-0.3459,-0.346,-0.3507,-0.3507,-0.3507,-0.3483,-0.3483,-0.3482,-0.3481,-0.3422,-0.3421,-0.342,0,0,0,0,0,0,0,0,0,0,0,0,0,-0.3324,-0.3265,-0.3457,-0.346,-0.3461,-0.3507,-0.3507,-0.3507,-0.3484,-0.3483,-0.3482,-0.3481,-0.3423,-0.3421,-0.342,-0.3427,0,0,-0.3415,-0.3414,0,0,0,0,0,0,0,0,-0.3321,-0.3331,-0.3458,-0.346,-0.3461,-0.3495,-0.3416,-0.3477,-0.3484,-0.3467,-0.3482,-0.3481,-0.3442,-0.3438,-0.344,-0.3424,-0.3422,-0.3415,-0.3414,-0.3413,-0.3412,0,0,0,0,0,0,0,-0.3316,-0.3328,-0.3469,-0.346,-0.3462,-0.343,-0.3438,-0.3427,-0.3451,-0.3468,-0.3469,-0.3486,-0.344,-0.3442,-0.3439,-0.3421,-0.3415,-0.3413,-0.3412,-0.3412,-0.3294,-0.3292,0,0,0,0,0,0,-0.3332,-0.3325,-0.3468,-0.3472,-0.3396,-0.3435,-0.3444,-0.3479,-0.3453,-0.3452,-0.3487,-0.3485,-0.3445,-0.3441,-0.3436,-0.3376,-0.3413,-0.3411,-0.3411,-0.3296,-0.3293,-0.3291,0,0,0,0,0,0,-0.3327,-0.3345,-0.3466,-0.3403,-0.3418,-0.3441,-0.3479,-0.348,-0.3483,-0.347,-0.3464,-0.3489,-0.3444,-0.3439,-0.3414,-0.3376,-0.3411,-0.3409,-0.3299,-0.3295,-0.3292,-0.3299,0,0,0,0,0,0,-0.3322,-0.3343,-0.3348,-0.3406,-0.3422,-0.3485,-0.3481,-0.3482,-0.3499,-0.3496,-0.347,-0.3464,-0.3443,-0.3417,-0.3413,-0.3375,-0.3408,-0.3301,-0.3297,-0.3293,-0.3301,-0.3296,-0.3292,0,0,0,0,0,-0.3315,-0.3325,-0.3348,-0.3364,-0.3438,-0.3486,-0.349,-0.3497,-0.35,-0.3496,-0.3476,-0.3465,-0.3386,-0.3415,-0.341,-0.3371,-0.3303,-0.3298,-0.3294,-0.3303,-0.3297,-0.3292,0,0,0,0,0,0,-0.3221,-0.3327,-0.3352,-0.3389,-0.3435,-0.3484,-0.3479,-0.3503,-0.3488,-0.3478,-0.3463,-0.3454,-0.3409,-0.3391,-0.3424,-0.3318,-0.3332,-0.3326,-0.3341,-0.3335,-0.333,-0.3346,-0.3407,0,0,0,0,0,-0.3215,-0.3256,-0.3344,-0.3365,-0.3394,-0.3441,-0.3456,-0.3476,-0.3488,-0.3481,-0.3466,-0.3429,-0.3386,-0.3366,-0.333,-0.3296,-0.3288,-0.3255,-0.325,-0.3247,-0.3252,-0.3237,-0.3232,-0.3275,-0.3275,-0.3275,0,0,-0.3179,-0.3244,-0.3262,-0.3348,-0.3381,-0.3402,-0.3444,-0.3475,-0.3468,-0.3476,-0.3439,-0.3421,-0.3374,-0.3321,-0.3297,-0.3303,-0.3221,-0.3241,-0.3238,-0.3245,-0.3231,-0.3228,-0.3225,-0.3272,-0.3272,-0.3273,0,0,-0.3132,-0.3197,-0.3216,-0.3259,-0.3331,-0.3366,-0.3381,-0.3439,-0.3438,-0.3423,-0.3409,-0.3385,-0.3323,-0.3292,-0.3262,-0.3213,-0.32,-0.3179,-0.317,-0.3155,-0.3153,-0.315,-0.3108,-0.3103,-0.3174,-0.3174,-0.3174,0,-0.3081,-0.3135,-0.3218,-0.3245,-0.3273,-0.335,-0.3363,-0.3372,-0.3403,-0.3408,-0.3397,-0.3333,-0.3303,-0.325,-0.322,-0.3205,-0.3188,-0.3204,-0.3154,-0.3151,-0.3149,-0.3107,-0.3101,-0.3173,-0.3174,-0.3174,-0.3174,0,-0.3055,-0.3091,-0.3104,-0.317,-0.3202,-0.3232,-0.3285,-0.3299,-0.3313,-0.3328,-0.3299,-0.3273,-0.3242,-0.321,-0.3197,-0.3156,-0.3144,-0.3158,-0.3182,-0.3146,-0.3102,-0.3096,-0.3173,-0.3173,-0.3173,-0.3173,0,0,-0.297,-0.3071,-0.3072,-0.31,-0.3178,-0.3208,-0.3205,-0.3246,-0.3254,-0.3249,-0.3248,-0.318,-0.3206,-0.3174,-0.3164,-0.3146,-0.3106,-0.3144,-0.3143,-0.3125,-0.3052,-0.2958,-0.2942,-0.312,-0.312,-0.3119,-0.3019,0,-0.2927,-0.2964,-0.3025,-0.3037,-0.3068,-0.3141,-0.314,-0.3176,-0.3198,-0.3209,-0.3202,-0.3182,-0.3176,-0.317,-0.3152,-0.3132,-0.3092,-0.313,-0.3068,-0.3066,-0.3008,-0.2933,-0.2814,-0.2708,-0.3013,-0.3011,-0.3011,0,-0.2882,-0.2926,-0.2941,-0.3017,-0.3037,-0.304,-0.3096,-0.3108,-0.3145,-0.3164,-0.3171,-0.318,-0.3157,-0.3157,-0.3101,-0.3128,-0.3081,-0.3057,-0.3053,-0.2965,-0.296,-0.2794,-0.2685,-0.2675,-0.3001,-0.3002,-0.3002,0,-0.2801,-0.2866,-0.2882,-0.2905,-0.2988,-0.2999,-0.3036,-0.3086,-0.3107,-0.3144,-0.3159,-0.3156,-0.3141,-0.311,-0.3059,-0.3083,-0.2989,-0.3018,-0.2879,-0.2871,-0.2755,-0.2738,-0.2651,-0.2954,-0.2955,-0.2955,-0.2955,0,-0.2748,-0.2756,-0.2845,-0.2854,-0.2867,-0.2947,-0.2963,-0.3006,-0.3064,-0.3074,-0.3131,-0.3124,-0.313,-0.3088,-0.3049,-0.2928,-0.2974,-0.2854,-0.2835,-0.2747,-0.2731,-0.2707,-0.275,-0.2951,-0.2952,-0.2953,-0.2953,0,-0.2642,-0.2708,-0.2728,-0.2809,-0.2828,-0.2833,-0.2912,-0.2928,-0.3003,-0.3018,-0.3028,-0.3081,-0.3029,-0.3005,-0.294,-0.2886,-0.2749,-0.2744,-0.2624,-0.2591,-0.246,-0.2507,-0.2402,-0.233,-0.2579,-0.2576,-0.2574,0,-0.2587,-0.2587,-0.2664,-0.2671,-0.2699,-0.2734,-0.2756,-0.2864,-0.2891,-0.2973,-0.2965,-0.2953,-0.2897,-0.2778,-0.2688,-0.2573,-0.2605,-0.2409,-0.2428,-0.2408,-0.2448,-0.2494,-0.2446,-0.2266,-0.2261,-0.2257,-0.2254,0,-0.2463,-0.2492,-0.2513,-0.2536,-0.2557,-0.2588,-0.2636,-0.2655,-0.2771,-0.2795,-0.2797,-0.2763,-0.2667,-0.251,-0.2385,-0.2311,-0.2359,-0.2322,-0.2337,-0.221,-0.2219,-0.2155,-0.2376,-0.2219,-0.2222,-0.2225,-0.2227,-0.2228,-0.2345,-0.2331,-0.2363,-0.2366,-0.2397,-0.2404,-0.2372,-0.2452,-0.2467,-0.2471,-0.2562,-0.2473,-0.2398,-0.2202,-0.2118,-0.1976,-0.2069,-0.194,-0.2001,-0.205,-0.1973,-0.2097,-0.1905,-0.1907,-0.1908,-0.191,-0.1911,0,-0.2182,-0.2189,-0.219,-0.2191,-0.2153,-0.2229,-0.2253,-0.2195,-0.2152,-0.2199,-0.2177,-0.2118,-0.1975,-0.1924,-0.1802,-0.1704,-0.1669,-0.1683,-0.1736,-0.1701,-0.182,-0.1798,-0.153,-0.153,-0.153,-0.153,-0.153,-0.153,-0.2096,-0.204,-0.2047,-0.1933,-0.1929,-0.1822,-0.1793,-0.1749,-0.1734,-0.1648,-0.1642,-0.161,-0.1677,-0.1863,-0.1735,-0.163,-0.1613,-0.1548,-0.1597,-0.1719,-0.175,-0.1779,-0.1766,-0.1496,-0.1496,-0.1399,-0.1399,-0.1398]},{"header":{"parameterUnit":"m.s-1","parameterCategory":2,"la1":30.2991,"la2":30.254,"lo1":-89.0895,"lo2":-89.0444,"dy":0.0017,"dx":0.0017,"nx":28,"ny":28,"refTime":"2025-11-21T09:00:00:Z","depth":"0","parameterNumber":3,"parameterNumberName":"V-component_of_CURRENTS"},"data":[0,0,0,0,0,0,0,0,0,0,0,0,0,0,0,0,0,0,0,0,0,0,0,0,0,0,0,0,0,0,0,0,0,0,0,0,0,0,0,0,0,0,0,0,0,0,0,0,0,0,0,0,0,0,0,0,0,0,-0.023,-0.0228,0,-0.008,-0.0079,-0.0077,0.0021,0.0021,0.0022,0.0022,0.0233,0.0238,0.0243,0,0,0,0,0,0,0,0,0,0,0,0,0,-0.0362,-0.0361,-0.023,-0.0228,-0.0226,-0.0081,-0.0079,-0.0076,0.002,0.0021,0.0022,0.0022,0.0231,0.0237,0.0243,0,0,0,0,0,0,0,0,0,0,0,0,0,-0.0267,-0.036,-0.023,-0.0161,-0.0154,-0.0081,-0.0079,-0.0076,0.002,0.0021,0.0022,0.0023,0.0229,0.0236,0.0244,0.0276,0,0,0.0267,0.0271,0,0,0,0,0,0,0,0,-0.0273,-0.0262,-0.0173,-0.0166,-0.0157,-0.0049,-0.0048,0.0044,0.002,-0.0045,0.0022,0.0023,0.0143,0.0158,0.0185,0.0285,0.0295,0.0268,0.0273,0.0276,0.0278,0,0,0,0,0,0,0,-0.028,-0.0268,-0.017,-0.0171,-0.0162,-0.0114,-0.01,-0.003,0.0045,-0.0039,-0.0032,-0.0017,0.0148,0.0177,0.0191,0.0298,0.0268,0.0275,0.0279,0.0282,0.0391,0.0389,0,0,0,0,0,0,-0.0304,-0.0274,-0.0174,-0.0165,-0.0216,-0.0113,-0.0097,-0.0083,0.0043,0.0062,-0.0018,-0.0013,0.0163,0.0181,0.0198,0.0219,0.0276,0.0283,0.0288,0.0393,0.0391,0.0389,0,0,0,0,0,0,-0.0308,-0.0297,-0.018,-0.0217,-0.0199,-0.0112,-0.0097,-0.0081,-0.0052,0.0058,0.0079,-0.0006,0.0165,0.0188,0.0251,0.0229,0.0287,0.0294,0.0395,0.0392,0.039,0.0275,0,0,0,0,0,0,-0.0312,-0.0299,-0.0304,-0.0219,-0.0198,-0.0153,-0.0097,-0.0079,-0.0045,-0.0037,0.0076,0.0096,0.0167,0.0238,0.0258,0.024,0.03,0.0397,0.0394,0.0391,0.0281,0.0269,0.0259,0,0,0,0,0,-0.0318,-0.0334,-0.0305,-0.0294,-0.0206,-0.0154,-0.014,-0.0074,-0.0045,-0.0043,0.0033,0.0092,0.0231,0.0244,0.0267,0.0251,0.0399,0.0395,0.0391,0.0286,0.0272,0.0259,0,0,0,0,0,0,-0.0393,-0.0323,-0.029,-0.0283,-0.0229,-0.0139,-0.0133,-0.0084,-0.0022,-0.0016,0.0089,0.0115,0.0151,0.0214,0.0226,0.0267,0.0317,0.0318,0.0229,0.0217,0.0205,0.0196,0.0306,0,0,0,0,0,-0.0414,-0.0406,-0.0328,-0.0323,-0.0303,-0.022,-0.0192,-0.0147,-0.0079,-0.005,0.0028,0.0099,0.0153,0.0195,0.025,0.0292,0.0361,0.0288,0.0276,0.0267,0.0271,0.0349,0.0346,0.0376,0.0376,0.0376,0,0,-0.044,-0.0402,-0.0396,-0.0339,-0.0293,-0.0276,-0.0202,-0.0172,-0.0155,-0.0037,0.0001,0.0063,0.0151,0.0185,0.0207,0.0241,0.029,0.0262,0.0253,0.0263,0.0345,0.0342,0.034,0.0374,0.0374,0.0374,0,0,-0.0494,-0.0459,-0.0471,-0.0436,-0.038,-0.0328,-0.0326,-0.0244,-0.0208,-0.0162,-0.0087,-0.0031,0.0058,0.012,0.0162,0.0124,0.0219,0.0124,0.008,0.0154,0.0153,0.0153,0.0227,0.0234,0.0131,0.013,0.013,0,-0.053,-0.0527,-0.0467,-0.047,-0.0449,-0.036,-0.0365,-0.0319,-0.0228,-0.0196,-0.0172,-0.0042,0.0027,0.0089,0.0067,0.0101,0.0158,0.0127,0.0142,0.0144,0.0146,0.0221,0.0231,0.0124,0.0125,0.0126,0.0126,0,-0.0586,-0.0584,-0.0592,-0.0564,-0.0537,-0.0529,-0.0458,-0.0427,-0.0374,-0.0313,-0.0251,-0.0153,-0.0067,-0.0054,0.0,0.004,0.0078,0.0111,0.018,0.0136,0.0218,0.023,0.0116,0.0118,0.012,0.0121,0,0,-0.0653,-0.0635,-0.0637,-0.0638,-0.0585,-0.0566,-0.0548,-0.049,-0.0463,-0.0388,-0.0342,-0.0261,-0.0194,-0.0144,-0.0069,-0.0005,0.0049,0.0049,0.0056,0.0128,0.0214,0.0263,0.0282,0.0085,0.0086,0.0088,0.0262,0,-0.0709,-0.0747,-0.0712,-0.0734,-0.0742,-0.0666,-0.0652,-0.0591,-0.0521,-0.0458,-0.0353,-0.029,-0.0232,-0.0191,-0.0121,0.0008,0.0077,-0.0001,0.0242,0.0249,0.0303,0.0296,0.0361,0.0524,0.0275,0.0277,0.0279,0,-0.0768,-0.0784,-0.0825,-0.0811,-0.0806,-0.0804,-0.0747,-0.072,-0.0614,-0.0558,-0.0466,-0.0375,-0.0268,-0.022,-0.0011,-0.0065,0.006,0.016,0.017,0.0268,0.0321,0.053,0.0557,0.0748,0.0299,0.0297,0.0296,0,-0.0841,-0.0855,-0.0892,-0.089,-0.0864,-0.0861,-0.0836,-0.0752,-0.0721,-0.0613,-0.0569,-0.0427,-0.0343,-0.0183,0.0023,0.0008,0.026,0.0273,0.0439,0.0444,0.0576,0.059,0.0827,0.042,0.042,0.0419,0.0419,0,-0.091,-0.0935,-0.0932,-0.0953,-0.0985,-0.0936,-0.0936,-0.0883,-0.0802,-0.076,-0.0625,-0.0546,-0.0332,-0.0158,0.0016,0.0274,0.0265,0.044,0.0496,0.0535,0.0542,0.0776,0.0836,0.0426,0.0425,0.0423,0.0422,0,-0.0981,-0.098,-0.1022,-0.1022,-0.1024,-0.1045,-0.1016,-0.1006,-0.0917,-0.0853,-0.0824,-0.0626,-0.0393,-0.016,0.0124,0.0274,0.0638,0.0601,0.0628,0.0683,0.0985,0.1033,0.1316,0.144,0.0803,0.0806,0.0808,0,-0.102,-0.1052,-0.1086,-0.1116,-0.112,-0.1138,-0.1147,-0.1077,-0.1051,-0.0889,-0.0858,-0.0628,-0.0432,0.0006,0.0309,0.0639,0.0776,0.0875,0.0853,0.1024,0.1121,0.1148,0.1232,0.0987,0.0991,0.0993,0.0995,0,-0.1087,-0.1098,-0.1133,-0.1207,-0.1236,-0.1261,-0.1258,-0.1255,-0.115,-0.1051,-0.0872,-0.07,-0.027,0.014,0.0553,0.0752,0.1021,0.0938,0.1129,0.1295,0.1331,0.1469,0.0843,0.1019,0.1017,0.1015,0.1014,0.1013,-0.1123,-0.1172,-0.1222,-0.1283,-0.1327,-0.136,-0.1362,-0.1317,-0.1243,-0.1017,-0.087,-0.0473,0.0016,0.0619,0.0833,0.1305,0.124,0.1451,0.15,0.1516,0.1623,0.1035,0.1257,0.1256,0.1255,0.1254,0.1253,0,-0.1162,-0.1217,-0.1291,-0.1359,-0.1412,-0.1413,-0.1412,-0.1354,-0.124,-0.0913,-0.0664,0.0044,0.0556,0.1032,0.1606,0.1858,0.1913,0.1984,0.2059,0.2123,0.1639,0.1635,0.1933,0.1932,0.1932,0.1932,0.1932,0.1931,-0.1182,-0.1261,-0.1304,-0.1403,-0.1448,-0.1468,-0.1455,-0.1327,-0.1081,-0.0527,0.0001,0.0396,0.1002,0.1788,0.2319,0.2373,0.2593,0.257,0.2677,0.2354,0.2308,0.2265,0.2279,0.2706,0.2707,0.317,0.3175,0.3178]}],[{"header":{"parameterUnit":"m.s-1","parameterCategory":2,"la1":30.2991,"la2":30.254,"lo1":-89.0895,"lo2":-89.0444,"dy":0.0017,"dx":0.0017,"nx":28,"ny":28,"refTime":"2025-11-21T09:00:00:Z","depth":"2","parameterNumber":2,"parameterNumberName":"U-component_of_CURRENTS"},"data":[0,0,0,0,0,0,0,0,0,0,0,0,0,0,0,0,0,0,0,0,0,0,0,0,0,0,0,0,0,0,0,0,0,0,0,0,0,0,0,0,0,0,0,0,0,0,0,0,0,0,0,0,0,0,0,0,0,0,-0.2655,-0.2656,0,-0.2695,-0.2695,-0.2696,-0.2674,-0.2674,-0.2673,-0.2672,-0.2672,-0.2673,-0.2673,0,0,0,0,0,0,0,0,0,0,0,0,0,-0.2577,-0.2578,-0.2655,-0.2656,-0.2656,-0.2695,-0.2695,-0.2696,-0.2675,-0.2673,-0.2672,-0.2671,-0.2671,-0.2672,-0.2673,0,0,0,0,0,0,0,0,0,0,0,0,0,-0.2611,-0.2578,-0.2655,-0.2652,-0.2652,-0.2695,-0.2695,-0.2696,-0.2675,-0.2673,-0.2672,-0.2671,-0.2671,-0.2672,-0.2674,-0.2709,0,0,-0.2678,-0.2678,0,0,0,0,0,0,0,0,-0.2609,-0.2614,-0.2651,-0.2652,-0.2652,-0.268,-0.2668,-0.2699,-0.2675,-0.2664,-0.2672,-0.267,-0.2673,-0.2674,-0.2683,-0.2709,-0.2709,-0.2678,-0.2678,-0.2679,-0.2679,0,0,0,0,0,0,0,-0.2607,-0.2612,-0.2669,-0.2652,-0.2653,-0.2654,-0.2657,-0.2674,-0.2674,-0.2665,-0.2664,-0.2672,-0.2672,-0.2682,-0.2682,-0.2709,-0.2678,-0.2679,-0.268,-0.268,-0.2756,-0.2757,0,0,0,0,0,0,-0.2607,-0.261,-0.2668,-0.267,-0.2629,-0.2657,-0.266,-0.2671,-0.2674,-0.2674,-0.2673,-0.2671,-0.268,-0.2681,-0.2682,-0.2716,-0.2679,-0.268,-0.2681,-0.2755,-0.2756,-0.2758,0,0,0,0,0,0,-0.2605,-0.2612,-0.2666,-0.2642,-0.2649,-0.266,-0.2672,-0.2673,-0.2681,-0.2681,-0.268,-0.268,-0.2679,-0.268,-0.2701,-0.2715,-0.2681,-0.2682,-0.2753,-0.2755,-0.2757,-0.2788,0,0,0,0,0,0,-0.2602,-0.2611,-0.2617,-0.2642,-0.2651,-0.2696,-0.2674,-0.2674,-0.2689,-0.2686,-0.2688,-0.2686,-0.2678,-0.27,-0.2703,-0.2717,-0.2683,-0.2752,-0.2754,-0.2756,-0.2785,-0.2791,-0.2795,0,0,0,0,0,-0.26,-0.2617,-0.2617,-0.2624,-0.266,-0.2698,-0.2703,-0.2703,-0.269,-0.2703,-0.2702,-0.2686,-0.2716,-0.2702,-0.2705,-0.272,-0.2751,-0.2754,-0.2756,-0.2783,-0.279,-0.2795,0,0,0,0,0,0,-0.2585,-0.2618,-0.2618,-0.2643,-0.267,-0.2695,-0.2707,-0.271,-0.2721,-0.2716,-0.2706,-0.2706,-0.2729,-0.2727,-0.2711,-0.275,-0.273,-0.2733,-0.2749,-0.2755,-0.276,-0.275,-0.2684,0,0,0,0,0,-0.2587,-0.2606,-0.2639,-0.2657,-0.2673,-0.2691,-0.2705,-0.2712,-0.2727,-0.273,-0.2732,-0.2736,-0.2747,-0.2751,-0.2762,-0.2788,-0.2764,-0.2799,-0.2804,-0.2808,-0.2804,-0.2793,-0.2795,-0.2767,-0.2767,-0.2767,0,0,-0.2584,-0.2606,-0.2615,-0.2655,-0.2673,-0.2703,-0.2695,-0.2726,-0.2746,-0.273,-0.2754,-0.2757,-0.2759,-0.2784,-0.2793,-0.278,-0.2803,-0.2812,-0.2815,-0.2808,-0.2796,-0.2798,-0.28,-0.2769,-0.2769,-0.2768,0,0,-0.2593,-0.2612,-0.2631,-0.266,-0.2697,-0.2715,-0.2727,-0.276,-0.2767,-0.28,-0.2789,-0.28,-0.2823,-0.2822,-0.2825,-0.2867,-0.2832,-0.2874,-0.2887,-0.2877,-0.2879,-0.288,-0.2842,-0.284,-0.2873,-0.2873,-0.2873,0,-0.2586,-0.2616,-0.2643,-0.2675,-0.2696,-0.2722,-0.275,-0.2774,-0.2808,-0.2816,-0.281,-0.2838,-0.2839,-0.2857,-0.2869,-0.2876,-0.2855,-0.2862,-0.2881,-0.2882,-0.2883,-0.2844,-0.2841,-0.2875,-0.2875,-0.2875,-0.2874,0,-0.261,-0.2638,-0.2656,-0.2699,-0.273,-0.2762,-0.2801,-0.2828,-0.284,-0.2855,-0.2881,-0.2886,-0.2894,-0.2903,-0.2898,-0.2909,-0.2887,-0.2889,-0.2861,-0.2887,-0.2845,-0.2841,-0.2878,-0.2877,-0.2876,-0.2876,0,0,-0.2574,-0.2655,-0.2658,-0.268,-0.2745,-0.2769,-0.2816,-0.2856,-0.2873,-0.2904,-0.2918,-0.294,-0.2934,-0.2937,-0.2934,-0.2927,-0.2911,-0.291,-0.2909,-0.2862,-0.2865,-0.2772,-0.2758,-0.2916,-0.2916,-0.2916,-0.2829,0,-0.2577,-0.2631,-0.2675,-0.2721,-0.2749,-0.2798,-0.2836,-0.2877,-0.2905,-0.293,-0.2939,-0.2954,-0.2951,-0.2951,-0.2947,-0.2929,-0.2904,-0.2933,-0.2856,-0.2853,-0.2759,-0.2753,-0.2559,-0.2459,-0.2825,-0.2824,-0.2824,0,-0.2571,-0.2611,-0.2656,-0.2725,-0.2741,-0.2773,-0.2826,-0.2868,-0.2918,-0.2939,-0.2959,-0.2967,-0.2972,-0.2962,-0.2928,-0.2946,-0.2902,-0.288,-0.2876,-0.2774,-0.2753,-0.2496,-0.2438,-0.2817,-0.2817,-0.2818,-0.2818,0,-0.2509,-0.259,-0.2619,-0.2645,-0.2733,-0.2754,-0.2797,-0.2857,-0.2886,-0.2937,-0.2952,-0.2969,-0.2962,-0.2939,-0.2895,-0.2912,-0.2839,-0.2856,-0.2723,-0.2716,-0.2526,-0.2502,-0.281,-0.281,-0.281,-0.281,-0.281,0,-0.2482,-0.2502,-0.2591,-0.2606,-0.2634,-0.2714,-0.2745,-0.2795,-0.2859,-0.2877,-0.2939,-0.294,-0.2956,-0.2923,-0.2889,-0.2781,-0.2828,-0.271,-0.2686,-0.2531,-0.2509,-0.2808,-0.2809,-0.2807,-0.2808,-0.2808,-0.2809,0,-0.2395,-0.2462,-0.2494,-0.2581,-0.2603,-0.2618,-0.2703,-0.2725,-0.2805,-0.283,-0.2844,-0.2904,-0.2862,-0.2848,-0.2795,-0.2746,-0.2675,-0.2618,-0.2421,-0.2376,-0.2559,-0.2563,-0.2469,-0.2465,-0.2461,-0.2458,-0.2456,0,-0.2352,-0.2361,-0.2443,-0.2456,-0.2489,-0.2534,-0.256,-0.2669,-0.2699,-0.2788,-0.2784,-0.2783,-0.2731,-0.2631,-0.2549,-0.2444,-0.2548,-0.222,-0.2221,-0.2537,-0.2524,-0.2533,-0.2541,-0.1976,-0.197,-0.1965,-0.1961,0,-0.2252,-0.2283,-0.2309,-0.2339,-0.2366,-0.2402,-0.2455,-0.2474,-0.259,-0.2614,-0.262,-0.2589,-0.2504,-0.2315,-0.2203,-0.213,-0.2232,-0.2114,-0.2477,-0.2104,-0.2068,-0.2058,-0.2082,-0.1916,-0.1921,-0.1924,-0.1926,-0.1928,-0.2155,-0.2146,-0.2181,-0.2192,-0.2227,-0.2237,-0.221,-0.228,-0.2293,-0.2287,-0.2379,-0.2263,-0.2232,-0.1952,-0.1838,-0.1759,-0.1918,-0.1847,-0.1864,-0.1886,-0.1856,-0.1818,-0.1611,-0.1613,-0.1615,-0.1617,-0.1619,0,-0.202,-0.2027,-0.2032,-0.2039,-0.201,-0.2083,-0.2104,-0.2045,-0.1993,-0.2019,-0.1985,-0.1765,-0.1623,-0.1599,-0.1397,-0.1357,-0.1358,-0.1312,-0.1321,-0.1365,-0.1404,-0.1353,-0.0972,-0.097,-0.0968,-0.0967,0,0,-0.1949,-0.1902,-0.1905,-0.1808,-0.181,-0.1714,-0.1686,-0.1627,-0.1602,-0.1499,-0.1443,-0.1535,-0.1546,-0.1269,-0.1196,-0.1049,-0.1197,-0.0992,-0.1509,-0.1563,-0.16,-0.1706,-0.1674,0,0,0,0,0]},{"header":{"parameterUnit":"m.s-1","parameterCategory":2,"la1":30.2991,"la2":30.254,"lo1":-89.0895,"lo2":-89.0444,"dy":0.0017,"dx":0.0017,"nx":28,"ny":28,"refTime":"2025-11-21T09:00:00:Z","depth":"2","parameterNumber":3,"parameterNumberName":"V-component_of_CURRENTS"},"data":[0,0,0,0,0,0,0,0,0,0,0,0,0,0,0,0,0,0,0,0,0,0,0,0,0,0,0,0,0,0,0,0,0,0,0,0,0,0,0,0,0,0,0,0,0,0,0,0,0,0,0,0,0,0,0,0,0,0,-0.0351,-0.035,0,-0.0258,-0.0256,-0.0255,-0.0188,-0.0188,-0.0187,-0.0187,-0.0032,-0.0028,-0.0024,0,0,0,0,0,0,0,0,0,0,0,0,0,-0.0408,-0.0408,-0.0351,-0.035,-0.0349,-0.0258,-0.0256,-0.0255,-0.0188,-0.0188,-0.0187,-0.0187,-0.0033,-0.0029,-0.0024,0,0,0,0,0,0,0,0,0,0,0,0,0,-0.0354,-0.0408,-0.0351,-0.0306,-0.0302,-0.0258,-0.0256,-0.0254,-0.0188,-0.0188,-0.0187,-0.0187,-0.0035,-0.0029,-0.0023,0.0002,0,0,-0.0006,-0.0003,0,0,0,0,0,0,0,0,-0.0357,-0.0352,-0.0314,-0.031,-0.0304,-0.0236,-0.022,-0.0166,-0.0188,-0.0229,-0.0187,-0.0187,-0.0096,-0.0086,-0.0067,0.0009,0.0016,-0.0005,-0.0002,0.0001,0.0002,0,0,0,0,0,0,0,-0.0361,-0.0355,-0.0312,-0.0313,-0.0307,-0.027,-0.0262,-0.0209,-0.0164,-0.0225,-0.0221,-0.0214,-0.0093,-0.0072,-0.0062,0.0018,-0.0006,-0.0,0.0003,0.0005,0.0146,0.0146,0,0,0,0,0,0,-0.0381,-0.0359,-0.0315,-0.0309,-0.0333,-0.027,-0.0261,-0.0256,-0.0165,-0.0152,-0.0215,-0.0212,-0.0082,-0.0069,-0.0057,-0.0015,0.0001,0.0006,0.0009,0.0145,0.0146,0.0146,0,0,0,0,0,0,-0.0383,-0.0378,-0.0318,-0.0333,-0.0324,-0.027,-0.0265,-0.0255,-0.0235,-0.0159,-0.0143,-0.0206,-0.0081,-0.0065,-0.0012,-0.0009,0.0008,0.0014,0.0145,0.0145,0.0146,0.0065,0,0,0,0,0,0,-0.0385,-0.038,-0.0385,-0.0335,-0.0324,-0.0301,-0.0266,-0.0254,-0.0233,-0.0228,-0.0146,-0.0131,-0.008,-0.0022,-0.0007,-0.0,0.0018,0.0145,0.0145,0.0146,0.0067,0.0062,0.0058,0,0,0,0,0,-0.0387,-0.0401,-0.0386,-0.038,-0.0332,-0.0302,-0.0293,-0.0251,-0.0234,-0.023,-0.0173,-0.0134,-0.0007,-0.0017,0.0,0.0008,0.0144,0.0145,0.0146,0.0069,0.0063,0.0058,0,0,0,0,0,0,-0.0428,-0.0394,-0.0376,-0.0378,-0.0347,-0.0292,-0.0287,-0.0258,-0.0211,-0.0205,-0.0131,-0.0113,-0.0066,-0.0017,-0.003,0.0052,0.0076,0.008,0.0012,0.0007,0.0003,-0.0018,0.0023,0,0,0,0,0,-0.0441,-0.0441,-0.0399,-0.0401,-0.039,-0.034,-0.0323,-0.0295,-0.0248,-0.0227,-0.0169,-0.0105,-0.005,-0.0015,0.0039,0.0083,0.0133,0.0102,0.0097,0.0093,0.0089,0.016,0.0161,0.0148,0.0148,0.0148,0,0,-0.0457,-0.0439,-0.0439,-0.041,-0.0381,-0.037,-0.0328,-0.031,-0.0294,-0.0217,-0.0178,-0.0122,-0.0043,0.0005,0.0031,0.0047,0.0124,0.0094,0.009,0.0088,0.0161,0.0162,0.0163,0.0149,0.0149,0.0148,0,0,-0.0493,-0.0474,-0.0486,-0.0465,-0.0434,-0.0399,-0.0399,-0.0348,-0.0319,-0.0278,-0.0218,-0.0162,-0.0078,-0.0019,0.0022,0.0028,0.0092,0.0046,0.0015,0.0083,0.0085,0.0087,0.0149,0.0157,0.005,0.005,0.005,0,-0.0515,-0.0521,-0.0485,-0.0489,-0.0478,-0.0418,-0.0424,-0.0385,-0.0322,-0.0297,-0.0277,-0.0149,-0.0087,-0.0017,-0.0016,0.0018,0.0063,0.0024,0.0076,0.0079,0.0082,0.0146,0.0156,0.0046,0.0046,0.0047,0.0047,0,-0.0556,-0.0559,-0.0565,-0.0548,-0.053,-0.0527,-0.0473,-0.0445,-0.0403,-0.0357,-0.0288,-0.0202,-0.0123,-0.0094,-0.0053,0.0004,0.0029,0.0054,0.0083,0.0078,0.0146,0.0158,0.004,0.0042,0.0043,0.0044,0,0,-0.061,-0.0598,-0.06,-0.0604,-0.0563,-0.0553,-0.0525,-0.0479,-0.0457,-0.0386,-0.0346,-0.0249,-0.0199,-0.015,-0.0083,-0.0023,0.0037,0.0016,0.0021,0.0065,0.0184,0.0209,0.0225,0.0067,0.0069,0.007,0.0221,0,-0.0653,-0.0684,-0.0657,-0.0672,-0.0682,-0.0621,-0.0601,-0.0549,-0.0488,-0.0434,-0.0334,-0.0274,-0.0219,-0.0184,-0.0114,-0.0003,0.0064,-0.0007,0.0193,0.0198,0.0212,0.0238,0.0207,0.0339,0.0232,0.0234,0.0236,0,-0.0701,-0.0716,-0.0749,-0.0738,-0.0736,-0.0731,-0.0684,-0.0655,-0.0559,-0.0512,-0.0426,-0.0346,-0.0242,-0.0201,-0.0009,-0.0059,0.0052,0.0139,0.0148,0.0207,0.0246,0.0329,0.0365,0.0256,0.0255,0.0253,0.0252,0,-0.0765,-0.0776,-0.0807,-0.0805,-0.0783,-0.078,-0.0759,-0.0684,-0.0657,-0.0559,-0.0523,-0.0388,-0.0314,-0.0166,0.0017,0.0004,0.0228,0.0241,0.0375,0.0378,0.041,0.0413,0.038,0.038,0.0379,0.0379,0.0378,0,-0.0823,-0.0845,-0.0843,-0.0862,-0.0892,-0.0848,-0.085,-0.0803,-0.0732,-0.0696,-0.0571,-0.0501,-0.0305,-0.015,0.0009,0.0231,0.0233,0.0377,0.0423,0.0381,0.0379,0.0352,0.0347,0.0385,0.0383,0.0382,0.0381,0,-0.0886,-0.0885,-0.0922,-0.0923,-0.0926,-0.0947,-0.0925,-0.0917,-0.0839,-0.0785,-0.0759,-0.058,-0.0374,-0.0163,0.0093,0.0224,0.0429,0.0511,0.0443,0.0478,0.0534,0.0523,0.0669,0.0672,0.0674,0.0675,0.0677,0,-0.0921,-0.0949,-0.0981,-0.101,-0.1015,-0.1034,-0.1045,-0.0984,-0.0962,-0.0821,-0.0795,-0.0593,-0.0422,-0.0039,0.0218,0.0507,0.0507,0.0635,0.0608,0.0536,0.0566,0.0552,0.0539,0.0623,0.0624,0.0625,0.0625,0,-0.0982,-0.0993,-0.1025,-0.1094,-0.1124,-0.1148,-0.1149,-0.1149,-0.1057,-0.0973,-0.0818,-0.0669,-0.0307,0.0007,0.036,0.0523,0.058,0.0657,0.0628,0.0542,0.0502,0.0527,0.0515,0.0631,0.063,0.063,0.063,0.0629,-0.1019,-0.1063,-0.1109,-0.1167,-0.1209,-0.1242,-0.1247,-0.1209,-0.1148,-0.0986,-0.0844,-0.0575,-0.0296,0.022,0.046,0.0676,0.0677,0.0732,0.0727,0.0722,0.0677,0.064,0.0788,0.0788,0.0788,0.0789,0.0789,0,-0.1061,-0.1109,-0.1177,-0.1241,-0.1292,-0.1294,-0.1295,-0.1252,-0.1158,-0.0974,-0.0776,-0.0428,-0.0075,0.0214,0.0562,0.0764,0.074,0.079,0.0716,0.071,0.0705,0.0655,0.0763,0.0764,0.0764,0.0764,0,0,-0.1084,-0.1155,-0.1192,-0.1285,-0.133,-0.1355,-0.1346,-0.1244,-0.1102,-0.0884,-0.067,-0.0398,-0.0053,0.0186,0.0436,0.061,0.0604,0.0623,0.0625,0.0503,0.0495,0.0658,0.0574,0,0,0,0,0]}],[{"header":{"parameterUnit":"m.s-1","parameterCategory":2,"la1":30.2991,"la2":30.254,"lo1":-89.0895,"lo2":-89.0444,"dy":0.0017,"dx":0.0017,"nx":28,"ny":28,"refTime":"2025-11-21T09:00:00:Z","depth":"4","parameterNumber":2,"parameterNumberName":"U-component_of_CURRENTS"},"data":[0,0,0,0,0,0,0,0,0,0,0,0,0,0,0,0,0,0,0,0,0,0,0,0,0,0,0,0,0,0,0,0,0,0,0,0,0,0,0,0,0,0,0,0,0,0,0,0,0,0,0,0,0,0,0,0,0,0,-0.1827,-0.1828,0,-0.1902,-0.1903,-0.1904,-0.1944,-0.1945,-0.1945,-0.1945,-0.2021,-0.2023,-0.2024,0,0,0,0,0,0,0,0,0,0,0,0,0,-0.173,-0.1731,-0.1827,-0.1828,-0.1829,-0.1902,-0.1903,-0.1904,-0.1944,-0.1945,-0.1945,-0.1945,-0.202,-0.2022,-0.2025,0,0,0,0,0,0,0,0,0,0,0,0,0,-0.1784,-0.1732,-0.1827,-0.1859,-0.1863,-0.1902,-0.1903,-0.1904,-0.1944,-0.1945,-0.1945,-0.1945,-0.202,-0.2022,-0.2025,-0.2035,0,0,-0.2033,-0.2034,0,0,0,0,0,0,0,0,-0.1781,-0.1787,-0.1853,-0.1857,-0.1861,-0.1915,-0.1897,-0.1948,-0.1944,-0.1912,-0.1945,-0.1946,-0.1986,-0.1992,-0.2003,-0.2038,-0.2041,-0.2033,-0.2035,-0.2036,-0.2037,0,0,0,0,0,0,0,-0.1777,-0.1784,-0.1855,-0.1854,-0.1859,-0.1874,-0.1882,-0.1906,-0.1945,-0.1915,-0.1918,-0.1929,-0.1988,-0.2,-0.2005,-0.2042,-0.2033,-0.2036,-0.2037,-0.2038,-0.2179,-0.2181,0,0,0,0,0,0,-0.177,-0.1781,-0.1853,-0.1858,-0.1823,-0.1875,-0.1884,-0.1897,-0.1945,-0.1953,-0.1928,-0.193,-0.1996,-0.2002,-0.2008,-0.2101,-0.2036,-0.2039,-0.204,-0.2177,-0.218,-0.2182,0,0,0,0,0,0,-0.1767,-0.1775,-0.185,-0.1822,-0.1832,-0.1877,-0.189,-0.1898,-0.194,-0.1956,-0.1964,-0.1967,-0.1996,-0.2004,-0.2063,-0.2101,-0.204,-0.2042,-0.2175,-0.2178,-0.2181,-0.2236,0,0,0,0,0,0,-0.1764,-0.1774,-0.1796,-0.1821,-0.1834,-0.1895,-0.1891,-0.1899,-0.1945,-0.1949,-0.1991,-0.1996,-0.1997,-0.2059,-0.2066,-0.2103,-0.2044,-0.2172,-0.2176,-0.218,-0.2231,-0.224,-0.2248,0,0,0,0,0,-0.1761,-0.1786,-0.1796,-0.1806,-0.1857,-0.1897,-0.1905,-0.1936,-0.1947,-0.1974,-0.2006,-0.1996,-0.2089,-0.2063,-0.207,-0.211,-0.217,-0.2175,-0.2179,-0.2228,-0.2239,-0.2248,0,0,0,0,0,0,-0.1758,-0.1793,-0.1805,-0.1842,-0.1877,-0.1905,-0.1937,-0.1955,-0.2001,-0.2015,-0.2024,-0.2032,-0.2097,-0.21,-0.2071,-0.2164,-0.2128,-0.2135,-0.2162,-0.2173,-0.2181,-0.2167,-0.2047,0,0,0,0,0,-0.1766,-0.1795,-0.1828,-0.1861,-0.1881,-0.1915,-0.1941,-0.1964,-0.2,-0.2022,-0.2051,-0.2085,-0.2118,-0.2143,-0.2172,-0.2223,-0.2196,-0.2254,-0.2263,-0.227,-0.2265,-0.226,-0.2267,-0.2198,-0.2198,-0.2197,0,0,-0.1775,-0.1799,-0.1817,-0.1863,-0.1893,-0.1933,-0.1932,-0.1984,-0.2025,-0.2022,-0.2098,-0.212,-0.214,-0.2198,-0.2227,-0.2207,-0.2277,-0.2276,-0.2282,-0.2272,-0.2266,-0.2272,-0.2277,-0.2201,-0.22,-0.22,0,0,-0.1798,-0.183,-0.186,-0.1894,-0.1947,-0.197,-0.1991,-0.2042,-0.2076,-0.2142,-0.2151,-0.2194,-0.2255,-0.227,-0.2284,-0.2358,-0.2322,-0.2378,-0.2409,-0.2406,-0.241,-0.2414,-0.2384,-0.2385,-0.2381,-0.2382,-0.2382,0,-0.181,-0.1847,-0.1877,-0.1916,-0.195,-0.1989,-0.2031,-0.2073,-0.214,-0.2167,-0.2179,-0.2263,-0.2285,-0.2333,-0.2363,-0.2376,-0.2357,-0.2366,-0.2414,-0.2417,-0.242,-0.2388,-0.2388,-0.2385,-0.2384,-0.2384,-0.2384,0,-0.1843,-0.1889,-0.1914,-0.1973,-0.2014,-0.2061,-0.2114,-0.2168,-0.2214,-0.2244,-0.2317,-0.2347,-0.2387,-0.2411,-0.2413,-0.2454,-0.2428,-0.2422,-0.2379,-0.2429,-0.2394,-0.2392,-0.2389,-0.2388,-0.2387,-0.2386,0,0,-0.1821,-0.1918,-0.1929,-0.1965,-0.2049,-0.2081,-0.2161,-0.2225,-0.2268,-0.2337,-0.2383,-0.2451,-0.2459,-0.2475,-0.2485,-0.249,-0.2499,-0.2471,-0.2469,-0.2426,-0.2472,-0.231,-0.2292,-0.2501,-0.2502,-0.2502,-0.2436,0,-0.1838,-0.1912,-0.1961,-0.204,-0.2079,-0.2145,-0.2209,-0.2276,-0.2332,-0.2389,-0.2427,-0.2478,-0.2486,-0.2507,-0.2518,-0.2509,-0.2501,-0.2516,-0.2443,-0.244,-0.2277,-0.2287,-0.2503,-0.2435,-0.2435,-0.2434,-0.2434,0,-0.1841,-0.1893,-0.197,-0.2065,-0.2089,-0.2147,-0.2239,-0.2302,-0.2386,-0.2429,-0.2481,-0.2506,-0.2544,-0.2536,-0.2532,-0.2543,-0.2512,-0.2494,-0.2491,-0.2314,-0.2275,-0.2378,-0.2431,-0.2432,-0.2432,-0.2432,-0.2432,0,-0.1783,-0.1893,-0.1953,-0.1988,-0.2105,-0.2157,-0.2221,-0.2314,-0.2361,-0.245,-0.2478,-0.2529,-0.2547,-0.2538,-0.2513,-0.2527,-0.2479,-0.2488,-0.2305,-0.2293,-0.2435,-0.2432,-0.2463,-0.2463,-0.2463,-0.2464,-0.2464,0,-0.1754,-0.1805,-0.1937,-0.1967,-0.2037,-0.2133,-0.2207,-0.2278,-0.2368,-0.2399,-0.2488,-0.2497,-0.2549,-0.2532,-0.2509,-0.2387,-0.2472,-0.2294,-0.2261,-0.2461,-0.2462,-0.2433,-0.2431,-0.2461,-0.2462,-0.2462,-0.2462,0,-0.1669,-0.1761,-0.1833,-0.1967,-0.201,-0.2059,-0.2186,-0.2225,-0.233,-0.237,-0.2397,-0.2471,-0.2439,-0.2451,-0.242,-0.2348,-0.2273,-0.2206,-0.2399,-0.2381,-0.2092,-0.2094,-0.1993,-0.1986,-0.1981,-0.1976,-0.1972,0,-0.1626,-0.1658,-0.1806,-0.1846,-0.1911,-0.2002,-0.2053,-0.2186,-0.2219,-0.2323,-0.2315,-0.2335,-0.2356,-0.2169,-0.2217,-0.2134,-0.2112,-0.2062,-0.2094,-0.2063,-0.2043,-0.2053,-0.2062,-0.1964,-0.1962,-0.1961,-0.196,0,-0.1533,-0.1604,-0.1662,-0.1744,-0.1812,-0.1875,-0.1959,-0.1966,-0.2093,-0.2208,-0.2157,-0.2125,-0.2075,-0.2043,-0.198,-0.1935,-0.2096,-0.2006,-0.2017,-0.2047,-0.2027,-0.2014,-0.2029,-0.1941,-0.1943,-0.1945,-0.1946,0,-0.146,-0.1475,-0.1559,-0.1611,-0.1694,-0.171,-0.1779,-0.1804,-0.1851,-0.1974,-0.1947,-0.1972,-0.2042,-0.1936,-0.1889,-0.1819,-0.1799,-0.1751,-0.1776,-0.1797,-0.1765,-0.1713,-0.1483,0,0,0,0,0,-0.1375,-0.1375,-0.1416,-0.1466,-0.1541,-0.1582,-0.1693,-0.1765,-0.1887,-0.1793,-0.1864,-0.1809,-0.1733,-0.1759,-0.1641,-0.1802,-0.181,-0.166,-0.1771,-0.1837,-0.1858,-0.1839,0,0,0,0,0,0,-0.1318,-0.1354,-0.1364,-0.1326,-0.1328,-0.1388,-0.1449,-0.1538,-0.1502,-0.163,-0.1592,-0.169,-0.1639,-0.175,-0.1596,-0.1601,-0.1632,-0.1692,-0.1687,-0.1824,-0.1844,-0.1862,-0.1849,0,0,0,0,0]},{"header":{"parameterUnit":"m.s-1","parameterCategory":2,"la1":30.2991,"la2":30.254,"lo1":-89.0895,"lo2":-89.0444,"dy":0.0017,"dx":0.0017,"nx":28,"ny":28,"refTime":"2025-11-21T09:00:00:Z","depth":"4","parameterNumber":3,"parameterNumberName":"V-component_of_CURRENTS"},"data":[0,0,0,0,0,0,0,0,0,0,0,0,0,0,0,0,0,0,0,0,0,0,0,0,0,0,0,0,0,0,0,0,0,0,0,0,0,0,0,0,0,0,0,0,0,0,0,0,0,0,0,0,0,0,0,0,0,0,-0.0276,-0.0276,0,-0.0221,-0.022,-0.0219,-0.0179,-0.0178,-0.0178,-0.0178,-0.0067,-0.0065,-0.0062,0,0,0,0,0,0,0,0,0,0,0,0,0,-0.0301,-0.0301,-0.0277,-0.0276,-0.0275,-0.0221,-0.022,-0.0219,-0.0179,-0.0178,-0.0178,-0.0178,-0.0068,-0.0065,-0.0062,0,0,0,0,0,0,0,0,0,0,0,0,0,-0.0271,-0.0301,-0.0277,-0.025,-0.0247,-0.0221,-0.022,-0.0219,-0.0179,-0.0178,-0.0178,-0.0178,-0.007,-0.0065,-0.0061,-0.0041,0,0,-0.0049,-0.0047,0,0,0,0,0,0,0,0,-0.0273,-0.027,-0.0254,-0.0252,-0.0249,-0.0208,-0.0188,-0.0157,-0.0179,-0.0203,-0.0178,-0.0178,-0.0111,-0.0103,-0.0091,-0.0036,-0.0031,-0.0048,-0.0046,-0.0044,-0.0043,0,0,0,0,0,0,0,-0.0275,-0.0272,-0.0253,-0.0254,-0.025,-0.0225,-0.0221,-0.0182,-0.0157,-0.0201,-0.0198,-0.0195,-0.0108,-0.0096,-0.0088,-0.0029,-0.0048,-0.0045,-0.0042,-0.004,0.0071,0.0072,0,0,0,0,0,0,-0.0288,-0.0274,-0.0254,-0.0251,-0.0262,-0.0225,-0.022,-0.022,-0.0158,-0.0149,-0.0195,-0.0193,-0.0103,-0.0093,-0.0084,-0.0051,-0.0044,-0.004,-0.0038,0.0071,0.0071,0.0072,0,0,0,0,0,0,-0.0289,-0.0287,-0.0257,-0.0262,-0.0257,-0.0226,-0.0225,-0.0219,-0.0209,-0.0155,-0.0145,-0.0193,-0.0102,-0.009,-0.0053,-0.0046,-0.0038,-0.0034,0.007,0.0071,0.0072,0.0013,0,0,0,0,0,0,-0.029,-0.0288,-0.0295,-0.0264,-0.0257,-0.0249,-0.0225,-0.0218,-0.0209,-0.0205,-0.0149,-0.0139,-0.0101,-0.006,-0.0049,-0.0041,-0.0031,0.007,0.0071,0.0071,0.0014,0.0011,0.0009,0,0,0,0,0,-0.0291,-0.0303,-0.0296,-0.0294,-0.0268,-0.025,-0.0244,-0.0219,-0.0209,-0.0208,-0.0169,-0.0141,-0.0046,-0.0056,-0.0044,-0.0034,0.0069,0.007,0.0071,0.0015,0.0012,0.0009,0,0,0,0,0,0,-0.0317,-0.0299,-0.0291,-0.0297,-0.0279,-0.0244,-0.0243,-0.0226,-0.0195,-0.0191,-0.0139,-0.0125,-0.009,-0.0053,-0.0066,0.0003,0.0018,0.0022,-0.0029,-0.0031,-0.0034,-0.0051,-0.0028,0,0,0,0,0,-0.0328,-0.0333,-0.0308,-0.0314,-0.0308,-0.0277,-0.0268,-0.0252,-0.022,-0.0207,-0.0166,-0.0119,-0.0075,-0.0049,-0.0008,0.0027,0.0066,0.0045,0.0042,0.0039,0.0035,0.0096,0.0098,0.0075,0.0075,0.0075,0,0,-0.034,-0.0331,-0.0335,-0.032,-0.0304,-0.0298,-0.0271,-0.0263,-0.0253,-0.0198,-0.0173,-0.0131,-0.0069,-0.0031,-0.001,0.0001,0.0066,0.0041,0.0038,0.0035,0.0097,0.0099,0.0101,0.0076,0.0076,0.0076,0,0,-0.0366,-0.036,-0.0372,-0.036,-0.0344,-0.0321,-0.0323,-0.0291,-0.0273,-0.0245,-0.02,-0.0155,-0.0094,-0.0044,-0.0011,-0.0001,0.0046,0.0013,-0.0008,0.0051,0.0053,0.0055,0.0103,0.011,0.0017,0.0017,0.0017,0,-0.0383,-0.0392,-0.0372,-0.0377,-0.0373,-0.0336,-0.0343,-0.0316,-0.0275,-0.0258,-0.0245,-0.0146,-0.0097,-0.0037,-0.0034,-0.0007,0.0027,-0.0005,0.0046,0.0049,0.0052,0.0101,0.011,0.0014,0.0015,0.0015,0.0015,0,-0.0412,-0.0421,-0.0427,-0.0421,-0.0412,-0.0413,-0.0377,-0.036,-0.0333,-0.0301,-0.0248,-0.018,-0.0119,-0.0093,-0.006,-0.0008,0.0008,0.0029,0.0047,0.0051,0.0103,0.0113,0.001,0.0011,0.0012,0.0013,0,0,-0.0447,-0.0449,-0.0453,-0.046,-0.0437,-0.0434,-0.0415,-0.0385,-0.0371,-0.0318,-0.029,-0.0208,-0.0172,-0.0132,-0.0078,-0.0025,0.0029,0.0004,0.0009,0.0041,0.015,0.0127,0.0136,0.0054,0.0056,0.0057,0.0175,0,-0.0477,-0.0507,-0.0492,-0.0511,-0.0522,-0.0484,-0.0472,-0.0438,-0.0395,-0.0357,-0.0275,-0.0231,-0.0185,-0.0158,-0.0097,-0.0006,0.0053,-0.0005,0.0152,0.0156,0.0127,0.0146,0.0061,0.0183,0.0185,0.0187,0.0188,0,-0.0509,-0.0526,-0.0559,-0.0562,-0.0563,-0.0567,-0.0541,-0.0523,-0.0453,-0.042,-0.0353,-0.0291,-0.0202,-0.0168,-0.0007,-0.005,0.0042,0.0116,0.0122,0.0128,0.0152,0.0183,0.0206,0.0205,0.0204,0.0202,0.0201,0,-0.0549,-0.0569,-0.0601,-0.0604,-0.06,-0.0606,-0.0598,-0.0548,-0.0532,-0.0459,-0.0435,-0.0323,-0.0266,-0.014,0.001,0.0002,0.0185,0.0199,0.0272,0.0271,0.0281,0.0277,0.0317,0.0317,0.0317,0.0317,0.0316,0,-0.0583,-0.0608,-0.0629,-0.0648,-0.0684,-0.066,-0.0675,-0.0644,-0.0597,-0.0574,-0.0476,-0.0421,-0.0257,-0.0131,0.0002,0.0163,0.0187,0.027,0.0302,0.0254,0.0246,0.0288,0.0283,0.0321,0.032,0.0319,0.0319,0,-0.0616,-0.0629,-0.0671,-0.0694,-0.0707,-0.0733,-0.0741,-0.074,-0.069,-0.0653,-0.0633,-0.0491,-0.0328,-0.0156,0.0058,0.0146,0.0307,0.0364,0.0295,0.0321,0.0356,0.0346,0.0447,0.0447,0.0448,0.0448,0.0448,0,-0.0632,-0.066,-0.0718,-0.0754,-0.0771,-0.0806,-0.0827,-0.0795,-0.0781,-0.0684,-0.066,-0.0508,-0.0397,-0.0102,0.0065,0.031,0.0345,0.0413,0.0386,0.0349,0.037,0.0361,0.0351,0.0448,0.0448,0.0448,0.0448,0,-0.0662,-0.069,-0.0727,-0.0807,-0.0851,-0.0887,-0.0906,-0.0901,-0.0843,-0.0805,-0.0658,-0.0501,-0.0316,-0.0098,0.0088,0.0265,0.0354,0.0416,0.0416,0.0391,0.0351,0.037,0.0361,0.0449,0.0449,0.0449,0.0449,0,-0.0683,-0.0723,-0.0781,-0.0843,-0.0908,-0.094,-0.0947,-0.0905,-0.0876,-0.0756,-0.0707,-0.0493,-0.0367,-0.0119,0.0058,0.0217,0.0253,0.0289,0.0297,0.0298,0.0209,0.0134,0.0196,0,0,0,0,0,-0.0697,-0.0742,-0.081,-0.0875,-0.094,-0.0968,-0.0983,-0.097,-0.0917,-0.0816,-0.0753,-0.0568,-0.0292,-0.0163,-0.0004,0.0036,0.0254,0.0221,0.0292,0.0453,0.0452,0.037,0,0,0,0,0,0,-0.0708,-0.0776,-0.0808,-0.0884,-0.0932,-0.0987,-0.0996,-0.0962,-0.0885,-0.081,-0.0649,-0.0553,-0.0277,-0.0378,-0.0006,0.0041,0.0101,0.0359,0.0361,0.0453,0.0452,0.0452,0.0367,0,0,0,0,0]}]]